Regional Weather Roundup
Issued by NWS Portland, ME

Current Version | Previous Version | Text Only | Print | Product List | Glossary Off
Versions: 1 2 3 4 5 6 7 8 9 10 11 12 13 14 15 16 17 18 19 20 21 22 23 24 25 26 27 28 29 30 31 32 33 34 35 36 37 38 39 40 41 42 43 44 45 46 47 48 49 50
000 ASUS41 KGYX 170710 RWRGYX WEATHER ROUNDUP FOR MAINE AND NEW HAMPSHIRE NATIONAL WEATHER SERVICE GRAY ME 300 AM EDT TUE OCT 17 2017 MEZ002-005-006-010-012-015-018-020-021-024-026-027-029-170800- MAINE CITY SKY/WX TMP DP RH WIND PRES REMARKS PORTLAND PTCLDY 40 30 67 VRB7 30.18R SANFORD CLEAR 38 33 82 CALM 30.18R BAR HARBOR MOCLDY 41 33 73 N3 30.13R WISCASSET PTCLDY 38 30 73 CALM 30.18R ROCKLAND CLOUDY 41 30 65 NW5 30.14R FRYEBURG CLEAR 28 28 100 NW3 30.18R LEWISTONAUBURN PTCLDY 33 28 81 CALM 30.17R AUGUSTA PTCLDY 35 27 72 NW6 30.16R WATERVILLE PTCLDY 35 28 75 NW6 30.13R BANGOR CLEAR 37 30 75 NW7 30.14R GREENVILLE N/A 33 29 85 NW6 30.08S MILLINOCKET CLEAR 33 32 96 NW5 30.13R HOULTON CLOUDY 30 29 96 CALM 30.08R PRESQUE ISLE CLEAR 34 28 79 W3 30.10R FRENCHVILLE CLOUDY 32 27 81 W9 30.07R CARIBOU MOCLDY 34 29 82 NW6 30.08R $$ NHZ002-005-008-009-011-012-014-170800- NEW HAMPSHIRE CITY SKY/WX TMP DP RH WIND PRES REMARKS PORTSMOUTH MOCLDY 40 33 76 NW8 30.17R ROCHESTER PTCLDY 33 29 85 NW6 30.17R NASHUA CLEAR 35 31 85 NW5 30.21R MANCHESTER PTCLDY 40 33 76 NW10 30.18R CONCORD CLEAR 30 27 88 CALM 30.20R LACONIA PTCLDY 38 32 79 W5 30.19R PLYMOUTH FAIR 38 32 77 W5 30.19R BERLIN PTCLDY 33 30 88 N3 30.16R WHITEFIELD PTCLDY 30 29 96 CALM 30.18R JAFFREY CLEAR 33 32 96 CALM 30.19R KEENE CLEAR 29 28 96 CALM 30.23R LEBANON CLEAR 33 30 88 CALM 30.20R MT WASHINGTON NOT AVBL $$ VTZ005-007-008-170800- VERMONT CITY SKY/WX TMP DP RH WIND PRES REMARKS ST JOHNSBURY N/A 34 33 96 MISG 30.18S MONTPELIER CLEAR 35 31 85 W5 30.22S BURLINGTON CLEAR 36 32 85 CALM 30.23R $$ MAZ007-012-024-CTZ003-RIZ002-NYZ038-NYZ072-170800- SOUTHERN NEW ENGLAND AND NY CITY SKY/WX TMP DP RH WIND PRES REMARKS BOSTON CLEAR 42 33 70 NW13 30.19R WORCESTER CLEAR 36 30 79 NW9 30.18R NANTUCKET MOCLDY 49 43 80 N18 30.11S PROVIDENCE PTCLDY 42 33 70 N8 30.19R HARTFORD CLEAR 39 33 79 N5 30.23R ALBANY PTCLDY 37 31 78 NW5 30.26R NEW YORK CITY CLEAR 47 34 60 NW10 30.24R $$ ANZ081-ANZ082-ANZ150-NHZ014-MEZ023>029-170800- COASTAL MARINE OBSERVATIONS STATION/POSITION TIME TEMP WIND PRES WAVE AIR SEA DIR/SP/G HT/PER (UTC) (F) (DEG/KT/KT) (MB) (FT/S) MOUNT DESERT ROC 0700 45 340/ 18/ 21 1019.3R MATINICUS ROCK 0600 45 360/ 23/ 25 1019.0R ISLE OF SHOALS 0600 44 310/ 12/ 14 1021.0R JEFFREYS LEDGE 0636 60 N/A 6/ 6 CASHES LEDGE BUO 0550 47 55 1019.2 6/ 6 GEORGES BANK BUO 0550 56 59 1014.1 6/ 8 $$ .............KEY.............. WCI - WIND CHILL TC - TEMPERATURE IN CELSIUS VSB - VISIBILITY IN MILES HX - HEAT INDEX FAIR- INDICATES FEW OR NO CLOUDS BELOW 12,000 FT, WITH NO SIGNIFICANT WEATHER AND/OR OBSTRUCTIONS TO VISIBILITY.

USA.gov is the U.S. government's official web portal to all federal, state and local government web resources and services.